Time,TemperatureF,DewpointF,PressureIn,WindDirection,WindDirectionDegrees,WindSpeedMPH,WindSpeedGustMPH,Humidity,HourlyPrecipIn,Conditions,Clouds,dailyrainin,SolarRadiationWatts/m^2,SoftwareType,DateUTC
2013-10-03 00:00:00,43.5,21.0,29.49,SSE,148,1.0,3.0,41,0.00,,,0.00,0,weatherlink.com 1.10,2013-10-03 06:00:00,
2013-10-03 00:15:00,43.2,21.0,29.48,SSE,157,0.0,4.0,41,0.00,,,0.00,0,weatherlink.com 1.10,2013-10-03 06:15:00,
2013-10-03 00:30:00,42.8,22.0,29.47,SSE,153,2.0,3.0,43,0.00,,,0.00,0,weatherlink.com 1.10,2013-10-03 06:30:00,
2013-10-03 00:45:00,42.1,21.0,29.46,SSE,157,1.0,4.0,44,0.00,,,0.00,0,weatherlink.com 1.10,2013-10-03 06:45:00,
2013-10-03 01:00:00,41.0,21.0,29.46,SW,221,5.0,5.0,45,0.00,,,0.00,0,weatherlink.com 1.10,2013-10-03 07:00:00,
2013-10-03 01:15:00,41.6,21.0,29.46,West,269,5.0,7.0,44,0.00,,,0.00,0,weatherlink.com 1.10,2013-10-03 07:15:00,
2013-10-03 01:30:00,42.6,21.0,29.46,South,190,5.0,7.0,42,0.00,,,0.00,0,weatherlink.com 1.10,2013-10-03 07:30:00,
2013-10-03 01:45:00,41.8,21.0,29.46,SSE,157,0.0,6.0,43,0.00,,,0.00,0,weatherlink.com 1.10,2013-10-03 07:45:00,
2013-10-03 02:00:00,40.0,21.0,29.46,SSW,197,2.0,3.0,46,0.00,,,0.00,0,weatherlink.com 1.10,2013-10-03 08:00:00,
2013-10-03 02:15:00,40.0,21.0,29.46,South,183,2.0,6.0,46,0.00,,,0.00,0,weatherlink.com 1.10,2013-10-03 08:15:00,
2013-10-03 02:30:00,40.1,20.0,29.45,West,264,0.0,6.0,45,0.00,,,0.00,0,weatherlink.com 1.10,2013-10-03 08:30:00,
2013-10-03 02:45:00,40.7,20.0,29.45,South,185,2.0,7.0,44,0.00,,,0.00,0,weatherlink.com 1.10,2013-10-03 08:45:00,
2013-10-03 03:00:00,41.4,20.0,29.44,WSW,244,2.0,6.0,42,0.00,,,0.00,0,weatherlink.com 1.10,2013-10-03 09:00:00,
2013-10-03 03:16:00,41.8,19.0,29.43,WSW,256,6.0,8.0,40,0.00,,,0.00,0,weatherlink.com 1.10,2013-10-03 09:16:00,
2013-10-03 03:31:00,41.8,19.0,29.43,South,171,0.0,7.0,40,0.00,,,0.00,0,weatherlink.com 1.10,2013-10-03 09:31:00,
2013-10-03 03:46:00,41.4,18.0,29.43,SW,230,0.0,11.0,39,0.00,,,0.00,0,weatherlink.com 1.10,2013-10-03 09:46:00,
2013-10-03 04:01:00,41.8,17.0,29.42,WSW,253,0.0,10.0,37,0.00,,,0.00,0,weatherlink.com 1.10,2013-10-03 10:01:00,
2013-10-03 04:16:00,41.9,17.0,29.42,SSE,167,5.0,12.0,37,0.00,,,0.00,0,weatherlink.com 1.10,2013-10-03 10:16:00,
2013-10-03 04:31:00,41.4,17.0,29.42,SSW,211,2.0,7.0,37,0.00,,,0.00,0,weatherlink.com 1.10,2013-10-03 10:31:00,
2013-10-03 04:46:00,41.5,17.0,29.42,SSW,203,3.0,8.0,37,0.00,,,0.00,0,weatherlink.com 1.10,2013-10-03 10:46:00,
2013-10-03 05:01:00,40.7,16.0,29.42,NNE,26,0.0,7.0,37,0.00,,,0.00,0,weatherlink.com 1.10,2013-10-03 11:01:00,
2013-10-03 05:16:00,40.7,16.0,29.42,NW,316,1.0,10.0,37,0.00,,,0.00,0,weatherlink.com 1.10,2013-10-03 11:16:00,
2013-10-03 05:31:00,41.0,16.0,29.41,West,273,3.0,7.0,36,0.00,,,0.00,0,weatherlink.com 1.10,2013-10-03 11:31:00,
2013-10-03 05:46:00,40.5,16.0,29.42,West,277,0.0,6.0,37,0.00,,,0.00,0,weatherlink.com 1.10,2013-10-03 11:46:00,
2013-10-03 06:01:00,39.9,16.0,29.42,WNW,295,0.0,5.0,38,0.00,,,0.00,0,weatherlink.com 1.10,2013-10-03 12:01:00,
2013-10-03 06:16:00,38.9,16.0,29.42,WNW,284,0.0,7.0,39,0.00,,,0.00,0,weatherlink.com 1.10,2013-10-03 12:16:00,
2013-10-03 06:31:00,39.1,16.0,29.42,WNW,302,2.0,6.0,39,0.00,,,0.00,0,weatherlink.com 1.10,2013-10-03 12:31:00,
2013-10-03 06:46:00,38.8,16.0,29.41,SSW,194,0.0,8.0,40,0.00,,,0.00,0,weatherlink.com 1.10,2013-10-03 12:46:00,
2013-10-03 07:01:00,38.4,16.0,29.41,WSW,250,2.0,10.0,41,0.00,,,0.00,0,weatherlink.com 1.10,2013-10-03 13:01:00,
2013-10-03 07:16:00,38.6,17.0,29.41,WSW,245,0.0,11.0,41,0.00,,,0.00,16,weatherlink.com 1.10,2013-10-03 13:16:00,
2013-10-03 07:31:00,40.3,18.0,29.40,West,273,3.0,6.0,40,0.00,,,0.00,33,weatherlink.com 1.10,2013-10-03 13:31:00,
2013-10-03 07:46:00,42.8,19.0,29.40,WSW,248,3.0,13.0,38,0.00,,,0.00,105,weatherlink.com 1.10,2013-10-03 13:46:00,
2013-10-03 08:01:00,44.2,19.0,29.40,West,271,3.0,10.0,37,0.00,,,0.00,144,weatherlink.com 1.10,2013-10-03 14:01:00,
2013-10-03 08:16:00,44.8,19.0,29.40,SW,230,4.0,13.0,36,0.00,,,0.00,190,weatherlink.com 1.10,2013-10-03 14:16:00,
2013-10-03 08:31:00,45.5,20.0,29.40,South,186,8.0,17.0,36,0.00,,,0.00,236,weatherlink.com 1.10,2013-10-03 14:31:00,
2013-10-03 08:46:00,46.5,21.0,29.39,SSW,203,3.0,14.0,36,0.00,,,0.00,288,weatherlink.com 1.10,2013-10-03 14:46:00,
2013-10-03 09:01:00,47.8,21.0,29.38,WNW,291,2.0,13.0,35,0.00,,,0.00,339,weatherlink.com 1.10,2013-10-03 15:01:00,
2013-10-03 09:17:00,48.3,21.0,29.38,NE,51,5.0,18.0,34,0.00,,,0.00,387,weatherlink.com 1.10,2013-10-03 15:17:00,
2013-10-03 09:32:00,49.2,22.0,29.38,SSW,211,5.0,16.0,34,0.00,,,0.00,438,weatherlink.com 1.10,2013-10-03 15:32:00,
2013-10-03 09:47:00,49.8,24.0,29.38,West,259,8.0,15.0,36,0.00,,,0.00,485,weatherlink.com 1.10,2013-10-03 15:47:00,
2013-10-03 10:02:00,51.5,22.0,29.37,SSW,200,5.0,13.0,31,0.00,,,0.00,529,weatherlink.com 1.10,2013-10-03 16:02:00,
2013-10-03 10:17:00,52.1,21.0,29.37,SSW,211,5.0,12.0,29,0.00,,,0.00,575,weatherlink.com 1.10,2013-10-03 16:17:00,
2013-10-03 10:32:00,52.6,20.0,29.36,South,182,5.0,15.0,28,0.00,,,0.00,615,weatherlink.com 1.10,2013-10-03 16:32:00,
2013-10-03 10:47:00,53.0,22.0,29.36,NNE,19,2.0,13.0,30,0.00,,,0.00,652,weatherlink.com 1.10,2013-10-03 16:47:00,
2013-10-03 11:02:00,54.1,21.0,29.35,NNW,330,1.0,14.0,28,0.00,,,0.00,682,weatherlink.com 1.10,2013-10-03 17:02:00,
2013-10-03 11:17:00,54.5,21.0,29.34,SSE,153,6.0,13.0,27,0.00,,,0.00,717,weatherlink.com 1.10,2013-10-03 17:17:00,
2013-10-03 11:32:00,55.3,21.0,29.33,WSW,239,4.0,15.0,26,0.00,,,0.00,742,weatherlink.com 1.10,2013-10-03 17:32:00,
2013-10-03 11:47:00,55.8,21.0,29.32,SW,216,6.0,15.0,26,0.00,,,0.00,765,weatherlink.com 1.10,2013-10-03 17:47:00,
2013-10-03 12:02:00,56.2,21.0,29.32,SSE,149,5.0,14.0,25,0.00,,,0.00,786,weatherlink.com 1.10,2013-10-03 18:02:00,
2013-10-03 12:17:00,56.9,21.0,29.32,WSW,246,3.0,11.0,25,0.00,,,0.00,798,weatherlink.com 1.10,2013-10-03 18:17:00,
2013-10-03 12:32:00,57.3,21.0,29.32,SE,139,4.0,16.0,24,0.00,,,0.00,812,weatherlink.com 1.10,2013-10-03 18:32:00,
2013-10-03 12:47:00,57.7,22.0,29.31,North,5,2.0,12.0,25,0.00,,,0.00,816,weatherlink.com 1.10,2013-10-03 18:47:00,
2013-10-03 13:03:00,58.5,21.0,29.31,WNW,291,11.0,13.0,23,0.00,,,0.00,819,weatherlink.com 1.10,2013-10-03 19:03:00,
2013-10-03 13:18:00,58.3,21.0,29.30,WSW,250,2.0,16.0,24,0.00,,,0.00,814,weatherlink.com 1.10,2013-10-03 19:18:00,
2013-10-03 13:33:00,58.5,22.0,29.30,SSW,195,7.0,16.0,24,0.00,,,0.00,816,weatherlink.com 1.10,2013-10-03 19:33:00,
2013-10-03 13:48:00,59.0,22.0,29.29,South,175,7.0,14.0,24,0.00,,,0.00,803,weatherlink.com 1.10,2013-10-03 19:48:00,
2013-10-03 14:03:00,58.2,21.0,29.28,SSE,167,8.0,18.0,24,0.00,,,0.00,788,weatherlink.com 1.10,2013-10-03 20:03:00,
2013-10-03 14:18:00,58.4,23.0,29.28,South,175,6.0,13.0,25,0.00,,,0.00,766,weatherlink.com 1.10,2013-10-03 20:18:00,
2013-10-03 14:33:00,57.5,22.0,29.28,SSE,154,10.0,16.0,25,0.00,,,0.00,740,weatherlink.com 1.10,2013-10-03 20:33:00,
2013-10-03 14:48:00,57.1,21.0,29.28,South,178,12.0,17.0,25,0.00,,,0.00,717,weatherlink.com 1.10,2013-10-03 20:48:00,
2013-10-03 15:03:00,57.7,22.0,29.28,WSW,252,7.0,14.0,25,0.00,,,0.00,171,weatherlink.com 1.10,2013-10-03 21:03:00,
2013-10-03 15:18:00,57.3,21.0,29.27,SE,144,10.0,15.0,24,0.00,,,0.00,70,weatherlink.com 1.10,2013-10-03 21:18:00,
2013-10-03 15:33:00,55.9,20.0,29.27,SSE,148,6.0,21.0,25,0.00,,,0.00,37,weatherlink.com 1.10,2013-10-03 21:33:00,
2013-10-03 15:48:00,55.9,20.0,29.27,SSW,199,5.0,16.0,25,0.00,,,0.00,54,weatherlink.com 1.10,2013-10-03 21:48:00,
2013-10-03 16:03:00,55.9,20.0,29.27,South,171,3.0,19.0,25,0.00,,,0.00,186,weatherlink.com 1.10,2013-10-03 22:03:00,
2013-10-03 16:18:00,56.2,20.0,29.26,SE,141,11.0,27.0,24,0.00,,,0.00,98,weatherlink.com 1.10,2013-10-03 22:18:00,
2013-10-03 16:33:00,56.1,20.0,29.26,SSW,201,5.0,14.0,24,0.00,,,0.00,134,weatherlink.com 1.10,2013-10-03 22:33:00,
2013-10-03 16:48:00,55.4,19.0,29.26,SSW,194,5.0,17.0,24,0.00,,,0.00,127,weatherlink.com 1.10,2013-10-03 22:48:00,
2013-10-03 17:03:00,54.5,19.0,29.26,SSE,160,12.0,17.0,25,0.00,,,0.00,167,weatherlink.com 1.10,2013-10-03 23:03:00,
2013-10-03 17:18:00,54.5,19.0,29.25,SE,133,11.0,24.0,25,0.00,,,0.00,287,weatherlink.com 1.10,2013-10-03 23:18:00,
2013-10-03 17:33:00,54.2,19.0,29.26,SSE,167,12.0,23.0,25,0.00,,,0.00,185,weatherlink.com 1.10,2013-10-03 23:33:00,
2013-10-03 17:48:00,53.7,20.0,29.26,South,184,9.0,12.0,27,0.00,,,0.00,65,weatherlink.com 1.10,2013-10-03 23:48:00,
2013-10-03 18:03:00,52.8,19.0,29.27,SE,141,3.0,12.0,26,0.00,,,0.00,33,weatherlink.com 1.10,2013-10-04 00:03:00,
2013-10-03 18:18:00,51.7,19.0,29.28,SSE,167,2.0,13.0,27,0.00,,,0.00,12,weatherlink.com 1.10,2013-10-04 00:18:00,
2013-10-03 18:33:00,50.7,18.0,29.29,SSE,155,3.0,13.0,28,0.00,,,0.00,5,weatherlink.com 1.10,2013-10-04 00:33:00,
2013-10-03 18:48:00,49.5,18.0,29.30,SE,142,10.0,12.0,29,0.00,,,0.00,0,weatherlink.com 1.10,2013-10-04 00:48:00,
2013-10-03 19:03:00,48.7,18.0,29.30,SE,144,5.0,11.0,30,0.00,,,0.00,0,weatherlink.com 1.10,2013-10-04 01:03:00,
2013-10-03 19:18:00,48.1,19.0,29.30,SE,144,3.0,14.0,31,0.00,,,0.00,0,weatherlink.com 1.10,2013-10-04 01:18:00,
2013-10-03 19:33:00,47.6,19.0,29.30,SE,128,1.0,12.0,32,0.00,,,0.00,0,weatherlink.com 1.10,2013-10-04 01:33:00,
2013-10-03 19:48:00,47.3,19.0,29.30,South,182,7.0,14.0,32,0.00,,,0.00,0,weatherlink.com 1.10,2013-10-04 01:48:00,
2013-10-03 20:03:00,47.0,19.0,29.31,SE,132,9.0,9.0,33,0.00,,,0.00,0,weatherlink.com 1.10,2013-10-04 02:03:00,
2013-10-03 20:18:00,46.3,19.0,29.31,West,259,2.0,10.0,34,0.00,,,0.00,0,weatherlink.com 1.10,2013-10-04 02:18:00,
2013-10-03 20:33:00,45.5,19.0,29.31,SSE,151,4.0,11.0,35,0.00,,,0.00,0,weatherlink.com 1.10,2013-10-04 02:33:00,
2013-10-03 20:48:00,45.2,19.0,29.31,SE,132,8.0,10.0,35,0.00,,,0.00,0,weatherlink.com 1.10,2013-10-04 02:48:00,
2013-10-03 21:03:00,44.8,19.0,29.31,SSE,156,8.0,9.0,35,0.00,,,0.00,0,weatherlink.com 1.10,2013-10-04 03:03:00,
2013-10-03 21:18:00,44.8,19.0,29.30,SW,233,5.0,12.0,36,0.00,,,0.00,0,weatherlink.com 1.10,2013-10-04 03:18:00,
2013-10-03 21:33:00,44.8,19.0,29.30,South,170,5.0,9.0,36,0.00,,,0.00,0,weatherlink.com 1.10,2013-10-04 03:33:00,
2013-10-03 21:48:00,44.5,20.0,29.29,WSW,239,4.0,10.0,37,0.00,,,0.00,0,weatherlink.com 1.10,2013-10-04 03:48:00,
2013-10-03 22:33:00,44.9,21.0,29.28,SE,138,7.0,16.0,38,0.00,,,0.00,0,weatherlink.com 1.10,2013-10-04 04:33:00,
2013-10-03 22:48:00,44.7,22.0,29.28,SE,130,6.0,14.0,40,0.00,,,0.00,0,weatherlink.com 1.10,2013-10-04 04:48:00,
2013-10-03 23:03:00,44.6,22.0,29.27,SSE,147,5.0,9.0,41,0.00,,,0.00,0,weatherlink.com 1.10,2013-10-04 05:03:00,
2013-10-03 23:33:00,45.2,21.0,29.25,SSE,166,11.0,17.0,39,0.00,,,0.00,0,weatherlink.com 1.10,2013-10-04 05:33:00,
2013-10-03 23:48:00,45.1,21.0,29.25,SE,137,12.0,16.0,39,0.00,,,0.00,0,weatherlink.com 1.10,2013-10-04 05:48:00,